Regional Weather Roundup
Issued by NWS

Home | Current Version | Previous Version | Graphics & Text | Print | Product List | Glossary On
Versions: 1 2 3 4 5 6 7 8 9 10 11 12 13 14 15 16 17 18 19 20 21 22 23 24 25 26 27 28 29 30 31 32 33 34 35 36 37 38 39 40 41 42 43 44 45 46 47 48 49 50
087
ASUS43 KMPX 261610
RWRMN
WEATHER ROUNDUP FOR MINNESOTA
NATIONAL WEATHER SERVICE TWIN CITIES/CHANHASSEN MN
1100 AM CDT SUN MAR 26 2017


NOTE: "FAIR" INDICATES FEW OR NO CLOUDS BELOW 12,000 FEET WITH NO
SIGNIFICANT WEATHER AND/OR OBSTRUCTIONS TO VISIBILITY. N/A MEANS
CURRENT SKY AND/OR WEATHER CONDITIONS ARE NOT AVAILABLE.

MNZ060>063-068>070-261700-
   Twin Cities Metro

CITY           SKY/WX    TMP DP  RH WIND       PRES   REMARKS
TWIN CITIES    CLOUDY    39  34  82 NE6       29.94S
ST PAUL        CLOUDY    39  37  92 NE6       29.95S
CRYSTAL        CLOUDY    38  34  85 N7        29.93S
BLAINE         CLOUDY    37  37 100 N6        29.94F FOG
LAKEVILLE      CLOUDY    36  36 100 NE5       29.93S FOG
EDEN PRAIRIE   CLOUDY    40  36  86 NE7       29.93S
SOUTH ST PAUL  CLOUDY    38  37  94 NE3       29.94S
LAKE ELMO      CLOUDY    37  36  93 NE3       29.94F
$$
MNZ001>005-007-008-013>017-022>024-027-028-261700-
   Northwest Minnesota

CITY           SKY/WX    TMP DP  RH WIND       PRES   REMARKS
BEMIDJI        CLOUDY    35  32  87 CALM      29.97S
HALLOCK        CLOUDY    36  34  93 S8        29.95S FOG
ROSEAU         CLOUDY    37  34  87 S7        29.96S
WARROAD        CLOUDY    37  34  87 CALM      29.96S
CROOKSTON      CLOUDY    37  36  93 S8        29.97F
FOSSTON        CLOUDY    41  34  75 S5        29.97F
DETROIT LAKES  CLOUDY    37  32  81 S3        29.97F
MOORHEAD       CLOUDY    36  34  93 SE3       29.98S
PARK RAPIDS    CLOUDY    37  30  75 CALM      29.96S
MAHNOMEN       CLOUDY    38  33  81 S6        29.96F
$$
MNZ006-009>011-018-025>026-261700-
   North Central Minnesota

CITY           SKY/WX    TMP DP  RH WIND       PRES   REMARKS
BAUDETTE       CLOUDY    37  31  78 S6        29.97S
FLAG ISLAND    CLOUDY    34  30  86 S8        29.96R WCI  27
INTL FALLS     CLOUDY    37  31  78 CALM      29.98S
WASKISH        CLOUDY    37  34  87 CALM      29.98S
BIG FORK       CLOUDY    37  32  81 CALM      29.97F
LONGVILLE      CLOUDY    36  32  87 CALM      29.96F
GRAND RAPIDS   CLOUDY    35  31  85 CALM      29.99F
CRANE LAKE     CLOUDY    36  30  80 NW3       30.01S
ORR            CLOUDY    36  28  75 CALM      29.96S
COOK           CLOUDY    34  30  86 CALM      29.98F
WALKER         CLOUDY    33  31  95 CALM      29.97S
$$
MNZ012-019>021-037-261700-
   Northeast Minnesota

CITY           SKY/WX    TMP DP  RH WIND       PRES   REMARKS
DULUTH         LGT RAIN  33  32  96 E7        29.96S WCI  27
ELY            DRIZZLE   32  30  93 CALM      29.97F
HIBBING        CLOUDY    32  30  92 NE3       29.97F
EVELETH        CLOUDY    33  30  88 CALM      29.98F
DULUTH HARBOR  MIX PCPN  34  34 100 CALM      30.00F
TWO HARBORS    DRIZZLE   37  32  81 E6        29.96F
SILVER BAY     DRIZZLE   34  34 100 NE5       29.97S WCI  30
GRAND MARAIS     N/A     34  32  92 E7        30.01F WCI  28
G MARAIS ARPRT MIX PCPN  30  25  80 N3        29.96F
$$
MNZ029>031-032-039>041-046>048-054>057-064-261700-
   West Central Minnesota

CITY           SKY/WX    TMP DP  RH WIND       PRES   REMARKS
FERGUS FALLS   CLOUDY    39  34  81 E3        30.00F
WHEATON        CLOUDY    39  36  87 CALM      29.99S
MORRIS         CLOUDY    39  36  87 CALM      29.96S
ALEXANDRIA     CLOUDY    38  32  79 NE5       29.96S
ELBOW LAKE     CLOUDY    37  33  84 CALM      29.97S
WADENA         CLOUDY    36  30  80 CALM      29.96S
GLENWOOD       SUNNY     37  34  87 NE7       29.95F
APPLETON       CLOUDY    37  36  93 CALM      29.96S FOG
BENSON         CLOUDY    39  30  70 E3        29.98S
ORTONVILLE     CLOUDY    36  36 100 E6        29.97R FOG
MADISON        DRIZZLE   39  39 100 E3        29.96S
WILLMAR        PTSUNNY   37  36  93 NE6       29.96F
$$
MNZ033>034-036-042>043-049>051-058-059-261700-
   Central Minnesota

CITY           SKY/WX    TMP DP  RH WIND       PRES   REMARKS
ST CLOUD       CLOUDY    36  35  96 NE5       29.95F
SAUK CENTRE    CLOUDY    35  32  91 N6        29.96S WCI  30
PAYNESVILLE      N/A     35  35 100 N5        29.95F FOG     WCI  31
AITKIN         CLOUDY    36  30  80 CALM      29.96S
PINE RIVER     CLOUDY    36  32  87 CALM      30.00F
BRAINERD       CLOUDY    34  33  96 NE6       29.97S FOG     WCI  29
STAPLES        CLOUDY    36  30  80 E3        29.96F
LONG PRAIRIE   CLOUDY    34  32  93 N6        29.96F WCI  29
LITTLE FALLS   CLOUDY    34  32  93 CALM      29.96F FOG
LITCHFIELD     CLOUDY    37  36  93 NE6       29.95S
BUFFALO        CLOUDY    37  34  90 N5        29.96S
MAPLE LAKE     CLOUDY    37  37  98 N6        29.95F
HUTCHINSON     CLOUDY    38  37  95 NE8       29.95F
$$
MNZ037-044-045-052-053-261700-
   East Central Minnesota

CITY           SKY/WX    TMP DP  RH WIND       PRES   REMARKS
PRINCETON      DRIZZLE   37  36  93 N5        29.96S
MORA           DRIZZLE   34  32  93 CALM      29.98S
CAMBRIDGE      LGT RAIN  37  36  93 N3        29.93F
RUSH CITY      DRIZZLE   37  35  94 N5        29.95F
MOOSE LAKE     CLOUDY    34  32  93 NE6       29.96S WCI  29
CLOQUET        CLOUDY    34  30  86 NE3       29.96F
MCGREGOR       CLOUDY    34  34 100 NE3       29.97F
$$
MNZ071>073-080-081-089-090-097-098-261700-
   Southwest Minnesota

CITY           SKY/WX    TMP DP  RH WIND       PRES   REMARKS
MONTEVIDEO     CLOUDY    37  37 100 E5        29.98S
GRANITE FALLS  CLOUDY    39  37  94 N7        29.97S
CANBY          CLOUDY    38  38  99 CALM      29.97S FOG
MARSHALL       CLOUDY    37  36  96 NE8       29.95S
REDWOOD FALLS  CLOUDY    38  35  89 NE6       29.94S
OLIVIA         CLOUDY    36  34  93 NE6       29.94F FOG
PIPESTONE      CLOUDY    37  36  93 E5        29.92S
WINDOM         CLOUDY    37  37 100 NE7       29.92S
WORTHINGTON    MIX PCPN  37  36  96 N8        29.93R
JACKSON        CLOUDY    37  36  93 VRB7      29.92S
TRACY          CLOUDY    38  38 100 N8        29.94S FOG
SLAYTON        CLOUDY    35  35 100 N8        29.94R FOG     WCI  29
$$
MNZ065>067-074>077-082>085-091>093-261700-
   South Central Minnesota

CITY           SKY/WX    TMP DP  RH WIND       PRES   REMARKS
MANKATO        CLOUDY    38  36  92 NE8       29.93S
NEW ULM        CLOUDY    37  36  93 N6        29.93S FOG
ST JAMES       CLOUDY    37  37 100 CALM      29.94S
FAIRMONT       CLOUDY    38  37  97 N12       29.92S FOG
GLENCOE        CLOUDY    38  38 100 N5        29.93F
FARIBAULT      CLOUDY    37  36  93 N8        29.93S FOG
OWATONNA       CLOUDY    37  36  93 N7        29.91F FOG
WASECA         CLOUDY    36  36 100 N7        29.92F FOG
ALBERT LEA     CLOUDY    37  37 100 N8        29.90S FOG
$$
MNZ078>079-086>088-094>096-261700-
   Southeast Minnesota

CITY           SKY/WX    TMP DP  RH WIND       PRES   REMARKS
ROCHESTER      CLOUDY    36  36 100 N8        29.90R FOG
RED WING       CLOUDY    37  36  93 CALM      29.92F FOG
STANTON        CLOUDY    38  36  93 NE8       29.92S
DODGE CENTER   FOG       36  36 100 N8        29.90S VSB 1
WINONA         CLOUDY    37  36  93 NE3       29.92S
AUSTIN         CLOUDY    37  36  93 NE7       29.89F FOG
PRESTON        CLOUDY    36  35  96 N3        29.89S FOG
$$
ABBREVIATIONS USED IN REMARKS
   TC - TEMPERATURES IN CELSIUS
  WCI - WIND CHILL INDEX
   HX - HEAT INDEX
  VSB - VISIBILITY
$$




USA.gov is the U.S. government's official web portal to all federal, state and local government web resources and services.